Regional Weather Roundup
Issued by NWS Charleston, SC

Current Version | Previous Version | Graphics & Text | Print | Product List | Glossary On
Versions: 1 2 3 4 5 6 7 8 9 10 11 12 13 14 15 16 17 18 19 20 21 22 23 24 25 26 27 28 29 30 31 32 33 34 35 36 37 38 39 40 41 42 43 44 45 46 47 48 49 50
000 ASUS42 KCHS 220112 RWRCHS REGIONAL WEATHER ROUNDUP NATIONAL WEATHER SERVICE CHARLESTON SC 900 PM EDT FRI JUL 21 2017 NOTE: "FAIR" INDICATES FEW OR NO CLOUDS BELOW 12,000 FEET WITH NO SIGNIFICANT WEATHER AND/OR OBSTRUCTIONS TO VISIBILITY. NOT ALL STATIONS ARE QUALITY CONTROLLED. USE DATA WITH CAUTION... ESPECIALLY DEWPOINT OBSERVATIONS. SCZ027-030-031-034>040-042>050-220200- ...SOUTHEAST SOUTH CAROLINA... CITY SKY/WX TMP DP RH WIND PRES REMARKS N CHARLESTON PTCLDY 80 74 81 S7 30.03R WATERFRONT PRK N/A 83 78 84 SW7 30.01R HX 93 JOHNS ISLAND FAIR 82 77 83 S12 30.03R HX 91 PINOPOLIS N/A 84 75 74 VRB2 29.95R HX 92 MONCKS CORNER FAIR 79 72 78 SW3 30.03R SUMMERVILLE FAIR 81 73 78 CALM 30.04R BEAUFORT MCAS CLEAR 84 78 82 S5 30.03R HX 95 BEAUFORT ARPT FAIR 82 75 78 S9 30.03R HILTON HEAD IS CLEAR 82 77 83 S8 30.04R HX 91 WALTERBORO CLEAR 81 73 78 S3 30.04R ALLENDALE NOT AVBL ...SOUTHERN MIDLANDS AND PEE DEE... CITY SKY/WX TMP DP RH WIND PRES REMARKS GEORGETOWN FAIR 79 79 100 SW6 30.04R KINGSTREE FAIR 82 73 74 S3 30.00S ORANGEBURG CLEAR 85 74 69 S9 30.01R HX 92 BARNWELL MOCLDY 81 75 83 CALM 30.03S AIKEN FAIR 79 72 78 S7 30.05S MANNING FAIR 86 75 70 W17G26 30.01S HX 95 COLUMBIA MOCLDY 86 73 65 SW3 29.99R HX 93 SUMTER NOT AVBL FLORENCE CLEAR 85 74 69 SW6 30.00R HX 92 MYRTLE BEACH CLEAR 82 75 78 SW10 30.00S N MYRTLE BEACH CLEAR 82 75 79 SW14 30.01R $$ GAZ063-065-086>088-099>101-113>116-118-119-134>141-150-220200- ...SOUTHEAST GEORGIA... CITY SKY/WX TMP DP RH WIND PRES REMARKS SAVANNAH ARPT PTCLDY 84 72 67 S7 30.03R HUNTER AAF CLEAR 82 76 80 S5 30.01R HX 90 FORT STEWART CLEAR 83 73 71 S3 30.01R STATESBORO PTCLDY 79 78 96 CALM 30.03R SYLVANIA CLEAR 80 78 91 CALM 30.05R CLAXTON FAIR 78 75 91 W3 30.04R ...CSRA...CENTRAL AND FAR SOUTHEAST GEORGIA... CITY SKY/WX TMP DP RH WIND PRES REMARKS THOMSON CLOUDY 77 71 82 SW3 30.07R AUGUSTA-BUSH CLOUDY 80 76 87 SW3 30.00F AUGUSTA-DANIEL CLOUDY 83 70 64 SE7 30.02F SWAINSBORO FAIR 79 73 83 CALM 30.05S VIDALIA CLOUDY 77 72 83 SW8 30.04R EASTMAN FAIR 78 71 77 SW3 30.07R HAZLEHURST FAIR 76 76 100 CALM 30.03F ALMA CLOUDY 74 74 100 CALM 30.03F WAYCROSS LGT RAIN 79 79 100 S6 30.07R JESUP NOT AVBL BAXLEY DRIZZLE 75 75 100 W3 30.04F BRUNSWICK CLEAR 84 77 79 S7 30.03S HX 94 SAINT SIMONS CLEAR 84 75 74 S8 30.03R HX 92 $$ SCZ027-028-034-036>038-045-046-048>050-GAZ119-141-220200- ...LAKE AND SUPPLEMENTAL COASTAL OBSERVATIONS... STATION/POSITION TIME TEMP WIND PRES WAVE SWELL AIR SEA DIR/SP/G HT/PER HT/PER/DIR (UTC) (F) (DEG/KT/KT) (MB) (FT/S) (FT/S/D) WINYAH BAY 2345 84 210/ 12 1016.0 LAKE MURRAY 0020 86 170/ 8/ 10 1014.6 ACE BASIN NERRS NOT AVBL FORT PULASKI 0036 83 86 200/ 8/ 14 1017.0R SAPELO ISLAND 0000 85 170/ 11 1016.0 $$ ANZ835-935-AMZ111-154-330-350-352-354-370-450-454-472-220200- ...C-MAN AND BUOY OBSERVATIONS... STATION/POSITION TIME TEMP WIND PRES WAVE SWELL AIR SEA DIR/SP/G HT/PER HT/PER/DIR (UTC) (F) (DEG/KT/KT) (MB) (FT/S) (FT/S/D) BUOY 41004 0050 83 84 200/ 12/ 16 1016.4R 3/ 8 2/130/ 8 BUOY 41008 0050 83 83 190/ 10/ 14 1016.4R 2/ 8 2/110/ 8 FOLLY BEACH CMAN 0000 83 200/ 13/ 15 1017.2R CAPERS NEARSHORE 0008 81 84 220/ 14/ 17 1016.1R FRIPP NEARSHORE 0008 83 84 190/ 12/ 16 1015.9S STATION/POSITION TIME TEMP WIND PRES WAVE SWELL AIR SEA DIR/SP/G HT/PER HT/PER/DIR (UTC) (F) (DEG/KT/KT) (MB) (FT/S) (FT/S/D) 5E ST. MARYS GA 0030 83 N/A 2/ 8 FRYING PAN BUOY 0050 83 84 210/ 16/ 19 1016.4R 3/ 8 2/130/ 8 BUOY 41025 0050 83 84 230/ 17/ 21 1015.4R 4/ 4 2/110/10 CAPE LOOKOUT NC 0000 82 220/ 12/ 15 1015.6R BUOY 41002 0050 83 84 200/ 8/ 10 1018.4R 4/ 8 3/110/ 8 BUOY 41010 0050 84 85 190/ 8/ 10 1017.6R 3/ 8 3/ 90/ 8 ST AUGUSTINE FL 0100 82 82 220/ 4/ 6 1017.1R $$

USA.gov is the U.S. government's official web portal to all federal, state and local government web resources and services.